Regional Weather Roundup
Issued by NWS Sioux Falls, SD

Home | Current Version | Previous Version | Text Only | Print | Product List | Glossary Off
Versions: 1 2 3 4 5 6 7 8 9 10 11 12 13 14 15 16 17 18 19 20 21 22 23 24 25 26 27 28 29 30 31 32 33 34 35 36 37 38 39 40 41 42 43 44 45 46 47 48 49 50

839
ASUS43 KFSD 172302
RWRFSD

WEATHER ROUNDUP FOR SE SOUTH DAKOTA/SW MINNESOTA/NW IOWA
NATIONAL WEATHER SERVICE SIOUX FALLS SD
600 PM CDT TUE OCT 17 2017

NOTE: "FAIR" INDICATES FEW OR NO CLOUDS BELOW 12,000 FEET WITH NO
SIGNIFICANT WEATHER AND OR OBSTRUCTIONS TO VISIBILITY.


SDZ038>040-050-052>070-180000-
SOUTHEAST SOUTH DAKOTA

CITY           SKY/WX    TMP DP  RH WIND       PRES   REMARKS
BROOKINGS      CLEAR     71  42  35 S8        29.90F
CHAMBERLAIN    CLEAR     74  42  31 S8        29.86F
HURON          CLEAR     74  42  31 S10       29.85F
MADISON        FAIR      68  41  37 S9        29.91F
MITCHELL       CLEAR     76  39  26 S7        29.89F
SIOUX FALLS    CLEAR     72  44  36 S8        29.92F
WINNER         FAIR      72  45  37 SE9       29.87F
YANKTON        CLEAR     77  40  26 SE5       29.92F
$$

MNZ071-072-080-081-089-090-097-098-180000-
SOUTHWEST MINNESOTA

CITY           SKY/WX    TMP DP  RH WIND       PRES   REMARKS
FAIRMONT       CLEAR     72  40  31 SW7       29.95S
JACKSON        CLEAR     72  36  26 SW5       29.96S
LUVERNE        CLEAR     70  34  26 SW6       29.94F
MARSHALL       CLEAR     74  39  28 SW7       29.89F
MONTEVIDEO     CLEAR     73  37  27 SW5       29.88F
PIPESTONE      CLEAR     72  41  33 SW7       29.93F
REDWOOD FALLS  CLEAR     73  37  27 SW5       29.89F
TRACY          CLEAR     72  42  34 S5        29.91F
WORTHINGTON    CLEAR     71  39  31 S5        29.95F
$$

IAZ001>003-012>014-020>022-031-032-NEZ013-014-SDZ071-180000-
NORTHWEST IOWA

CITY           SKY/WX    TMP DP  RH WIND       PRES   REMARKS
CHEROKEE       CLEAR     66  48  53 S5        29.97S
DENISON        CLEAR     68  45  42 SW5       30.01S
ESTHERVILLE    CLEAR     70  42  36 S7        29.95S
LE MARS        CLEAR     72  43  35 S7        29.95F
ORANGE CITY    CLEAR     72  45  37 S6        29.96F
SHELDON        CLEAR     72  39  30 S7        29.94S
SIOUX CITY     CLEAR     71  47  42 SE8       29.96S
SPENCER        CLEAR     71  43  36 S8        29.96S
STORM LAKE     CLEAR     68  43  40 S8        29.98F
$$

ABBREVIATIONS USED IN REMARKS
   TC - TEMPERATURE IN CELSIUS
  WCI - WIND CHILL INDEX
   HX - HEAT INDEX
  VSB - VISIBILITY





USA.gov is the U.S. government's official web portal to all federal, state and local government web resources and services.